Moriarty, NM

11:53 PM MST on November 21, 2017 (GMT -0700)
Moriarty

Weather History for K0E0 - November, 2012

Change the Weather History Date:

Monday, November 19, 2012

  Actual Average (KABQ) Record (KABQ)
Temperature  
Mean Temperature 41 °F -  
Max Temperature 61 °F 53 °F 72 °F (1915)
Min Temperature 21 °F 30 °F 16 °F (1921)
Degree Days  
Heating Degree Days 24    
Moisture  
Dew Point 21 °F    
Average Humidity 55    
Maximum Humidity 96    
Minimum Humidity 15    
Precipitation  
Precipitation 0.00 in - - ()
Sea Level Pressure  
Sea Level Pressure 30.31 in    
Wind  
Wind Speed 4 mph (NNW)    
Max Wind Speed 17 mph    
Max Gust Speed 25 mph    
Visibility 10 miles    
Events      
Averages and records for this station are not official NWS values.
T = Trace of Precipitation, MM = Missing Value Source: NWS Daily Summary

Daily Weather History Graph

Daily Weather History Graph

Search for Another Location

Airport or City:

Trip Planner

Search our weather history database for the weather conditions in past years. The results will help you decide how hot, cold, wet, or windy it might be!

Date:

Astronomy

Nov. 19, 2012 Rise Set
Actual Time 6:42 AM MST 4:55 PM MST
Civil Twilight 6:15 AM MST 5:23 PM MST
Nautical Twilight 5:44 AM MST 5:53 PM MST
Astronomical Twilight 5:14 AM MST 6:24 PM MST
Moon 11:52 AM MST (11/19) 11:19 PM MST (11/19)
Length of Visible Light 11h 07m
Length of Day
10h 13m
Waxing Crescent, 41% of the Moon is Illuminated
Nov 19
Waxing Crescent
Nov 20
First Quarter
Nov 28
Full
Dec 6
Last Quarter
Dec 13
New

Hourly Weather History & Observations

Time (MST) Temp. Windchill Dew Point Humidity Pressure Visibility Wind Dir Wind Speed Gust Speed Precip Events Conditions
12:15 AM 31.1 °F - 28.9 °F 92% 30.26 in 10.0 mi Calm Calm - N/A   Clear
12:35 AM 25.5 °F - 22.3 °F 88% 30.26 in 10.0 mi Calm Calm - N/A   Clear
12:55 AM 26.4 °F - 22.6 °F 86% 30.26 in 10.0 mi Calm Calm - N/A   Clear
1:15 AM 25.5 °F - 22.8 °F 89% 30.26 in 10.0 mi Calm Calm - N/A   Clear
1:35 AM 24.3 °F 19.9 °F 21.6 °F 89% 30.26 in 7.0 mi NNW 3.5 mph - N/A   Scattered Clouds
1:55 AM 24.8 °F - 22.6 °F 91% 30.26 in 10.0 mi Calm Calm - N/A   Clear
2:15 AM 29.3 °F 24.3 °F 27.7 °F 94% 30.26 in 10.0 mi NNW 4.6 mph - N/A   Clear
2:35 AM 26.8 °F - 25.0 °F 93% 30.27 in 10.0 mi Calm Calm - N/A   Clear
2:55 AM 27.7 °F 21.3 °F 25.9 °F 93% 30.28 in 10.0 mi West 5.8 mph - N/A   Clear
3:15 AM 23.0 °F - 21.0 °F 92% 30.29 in 10.0 mi Calm Calm - N/A   Clear
3:35 AM 25.0 °F - 23.2 °F 93% 30.28 in 4.0 mi Calm Calm - N/A   Clear
3:55 AM 25.9 °F - 25.0 °F 96% 30.28 in 10.0 mi Calm Calm - N/A   Clear
4:15 AM 34.5 °F - 29.5 °F 82% 30.27 in 10.0 mi Calm Calm - N/A   Clear
4:35 AM 24.3 °F 16.3 °F 21.2 °F 88% 30.28 in 10.0 mi ENE 6.9 mph - N/A   Clear
4:55 AM 25.2 °F - 23.9 °F 95% 30.29 in 10.0 mi Calm Calm - N/A   Clear
5:15 AM 28.0 °F 24.2 °F 25.9 °F 92% 30.29 in 10.0 mi ENE 3.5 mph - N/A   Clear
5:35 AM 23.2 °F 17.2 °F 21.7 °F 94% 30.29 in 10.0 mi North 4.6 mph - N/A   Clear
5:55 AM 22.8 °F 14.5 °F 21.4 °F 94% 30.29 in 10.0 mi NNE 6.9 mph - N/A   Clear
6:35 AM 26.1 °F - 23.5 °F 90% 30.29 in 10.0 mi Calm Calm - N/A   Clear
6:55 AM 30.4 °F 25.6 °F 26.4 °F 85% 30.29 in 10.0 mi NW 4.6 mph - N/A   Clear
7:15 AM 27.1 °F 20.7 °F 24.1 °F 88% 30.31 in 10.0 mi NNW 5.8 mph - N/A   Clear
7:35 AM 32.0 °F 24.2 °F 28.2 °F 86% 30.31 in 10.0 mi WNW 9.2 mph - N/A   Clear
7:55 AM 38.8 °F 34.6 °F 31.6 °F 75% 30.32 in 10.0 mi NW 5.8 mph - N/A   Clear
8:15 AM 41.2 °F - 30.6 °F 66% 30.33 in 10.0 mi Calm Calm - N/A   Clear
8:35 AM 47.1 °F - 32.0 °F 56% 30.33 in 10.0 mi WNW 8.1 mph - N/A   Clear
8:55 AM 51.4 °F - 29.7 °F 43% 30.34 in 10.0 mi NW 10.4 mph - N/A   Clear
9:15 AM 53.1 °F - 28.2 °F 38% 30.34 in 10.0 mi NW 10.4 mph - N/A   Clear
9:35 AM 54.5 °F - 26.8 °F 34% 30.35 in 10.0 mi NNW 11.5 mph - N/A   Clear
9:55 AM 55.9 °F - 24.8 °F 30% 30.35 in 10.0 mi NW 17.3 mph 25.3 mph N/A   Clear
10:15 AM 55.2 °F - 24.6 °F 31% 30.35 in 10.0 mi North 16.1 mph - N/A   Clear
10:35 AM 55.6 °F - 24.3 °F 30% 30.35 in 10.0 mi NW 13.8 mph 21.9 mph N/A   Clear
10:55 AM 56.8 °F - 23.7 °F 28% 30.35 in 10.0 mi NW 12.7 mph 17.3 mph N/A   Clear
11:15 AM 57.6 °F - 22.3 °F 26% 30.35 in 10.0 mi NW 16.1 mph 20.7 mph N/A   Clear
11:35 AM 57.9 °F - 22.6 °F 26% 30.34 in 10.0 mi NNW 12.7 mph 21.9 mph N/A   Clear
11:55 AM 58.5 °F - 22.8 °F 25% 30.32 in 10.0 mi NW 12.7 mph 21.9 mph N/A   Clear
12:15 PM 59.4 °F - 22.8 °F 25% 30.31 in 10.0 mi NW 11.5 mph 19.6 mph N/A   Clear
12:35 PM 59.2 °F - 22.6 °F 25% 30.31 in 10.0 mi WNW 10.4 mph 16.1 mph N/A   Clear
12:55 PM 60.1 °F - 21.9 °F 23% 30.30 in 10.0 mi WNW 13.8 mph 17.3 mph N/A   Clear
1:15 PM 60.3 °F - 20.1 °F 21% 30.30 in 10.0 mi NW 11.5 mph 17.3 mph N/A   Clear
1:35 PM 61.0 °F - 20.1 °F 21% 30.29 in 10.0 mi NW 11.5 mph 18.4 mph N/A   Clear
1:55 PM 61.2 °F - 18.3 °F 19% 30.29 in 10.0 mi NW 9.2 mph - N/A   Clear
2:15 PM 61.5 °F - 17.8 °F 18% 30.29 in 10.0 mi WNW 9.2 mph - N/A   Clear
2:55 PM 61.7 °F - 13.8 °F 15% 30.28 in 10.0 mi NNW 9.2 mph - N/A   Clear
3:15 PM 61.7 °F - 13.1 °F 15% 30.29 in 10.0 mi WNW 10.4 mph - N/A   Clear
3:35 PM 60.4 °F - 14.4 °F 17% 30.29 in 10.0 mi WNW 11.5 mph - N/A   Clear
3:55 PM 59.5 °F - 17.2 °F 19% 30.29 in 10.0 mi WNW 11.5 mph - N/A   Clear
4:15 PM 58.5 °F - 17.2 °F 20% 30.29 in 10.0 mi WNW 8.1 mph - N/A   Clear
4:35 PM 55.9 °F - 17.6 °F 22% 30.30 in 10.0 mi WNW 6.9 mph - N/A   Clear
4:55 PM 50.0 °F - 16.7 °F 27% 30.31 in 10.0 mi NW 6.9 mph - N/A   Clear
5:35 PM 46.0 °F 41.9 °F 18.1 °F 33% 30.32 in 10.0 mi WNW 8.1 mph - N/A   Clear
5:55 PM 44.2 °F - 18.1 °F 35% 30.33 in 10.0 mi Calm Calm - N/A   Clear
6:15 PM 42.4 °F 38.1 °F 18.3 °F 38% 30.34 in 10.0 mi WNW 6.9 mph - N/A   Clear
6:35 PM 39.7 °F 35.6 °F 18.5 °F 42% 30.34 in 10.0 mi WNW 5.8 mph - N/A   Clear
6:55 PM 41.4 °F - 20.1 °F 43% 30.34 in 10.0 mi Calm Calm - N/A   Clear
7:15 PM 40.3 °F 38.2 °F 18.0 °F 41% 30.35 in 10.0 mi East 3.5 mph - N/A   Clear
7:35 PM 32.9 °F 29.8 °F 15.8 °F 49% 30.35 in 10.0 mi NE 3.5 mph - N/A   Clear
7:55 PM 33.4 °F - 16.3 °F 50% 30.35 in 10.0 mi Calm Calm - N/A   Clear
8:15 PM 30.6 °F 27.1 °F 13.5 °F 49% 30.35 in 10.0 mi East 3.5 mph - N/A   Clear
8:35 PM 32.0 °F 27.5 °F 16.0 °F 52% 30.35 in 10.0 mi NE 4.6 mph - N/A   Clear
8:55 PM 31.1 °F 27.7 °F 14.7 °F 51% 30.35 in 10.0 mi East 3.5 mph - N/A   Clear
9:15 PM 32.2 °F 27.7 °F 15.6 °F 51% 30.35 in 10.0 mi East 4.6 mph - N/A   Clear
9:55 PM 29.1 °F - 15.8 °F 58% 30.35 in 10.0 mi Calm Calm - N/A   Clear
10:15 PM 31.5 °F - 16.5 °F 54% 30.35 in 10.0 mi Calm Calm - N/A   Clear
10:35 PM 25.0 °F - 12.6 °F 59% 30.35 in 10.0 mi Calm Calm - N/A   Clear
10:55 PM 23.9 °F - 10.6 °F 57% 30.35 in 10.0 mi Calm Calm - N/A   Clear
11:15 PM 23.5 °F - 9.9 °F 56% 30.35 in 10.0 mi Calm Calm - N/A   Clear
11:35 PM 21.7 °F - 9.0 °F 58% 30.35 in 10.0 mi Calm Calm - N/A   Clear
11:55 PM 21.0 °F - 9.0 °F 60% 30.35 in 10.0 mi Calm Calm - N/A   Clear